Burlington, WA
on Wednesday, January 16, 2013

Wednesday
Previous Day Next Day
Daily Summary
 ActualAverage (KBLI)Record (KBLI)
Temperature
Mean Temperature °F 39°F  
Max Temperature 42°F 46°F 58°F (1958)
Min Temperature 30°F 33°F 9°F (1950)
Degree Days
Heating Degree Days 29 26  
Month to date heating degree days 422  
Cooling Degree Days 0 0  
Month to date cooling degree days 0  
Year to date cooling degree days 0  
Moisture
Dew Point 33°F   
Average Humidity 95    
Maximum Humidity 100    
Minimum Humidity 76    
Precipitation
Precipitation 0.00 in 0.16 in 1.28 in (1975)
Month to date precipitation 2.46  
Year to date precipitation 2.46  
Wind
Wind Speed 6 mph   
Max Wind Speed 12 mph   
Max Gust Speed mph   
Visibility 10 miles   
Events     

Key: T is trace of precipitation, MM is missing value
Source: NWS Daily Summary
Time(PST)TemperatureDew PointHumidity Pressure Visibility Wind DirectionWind SpeedGust SpeedPrecipitationEvents Conditions
12:35 AM 32.0°F 32.0°F 100% 30.70 in 10.0 miles NE 4.6 mph - 0.00 in   Clear
12:55 AM 32.0°F 32.0°F 100% 30.70 in 10.0 miles NE 4.6 mph - 0.00 in   Clear
1:15 AM 32.0°F 32.0°F 100% 30.69 in 10.0 miles NE 5.8 mph - 0.00 in   Clear
1:35 AM 32.0°F 32.0°F 100% 30.70 in 10.0 miles NE 5.8 mph - 0.00 in   Clear
1:55 AM 32.0°F 32.0°F 100% 30.70 in 10.0 miles NE 9.2 mph - 0.00 in   Clear
2:15 AM 32.0°F 32.0°F 100% 30.70 in 10.0 miles NE 8.1 mph - 0.00 in   Clear
2:35 AM 32.0°F 32.0°F 100% 30.70 in 10.0 miles NE 5.8 mph - 0.00 in   Clear
2:55 AM 32.0°F 32.0°F 100% 30.70 in 10.0 miles NE 5.8 mph - 0.00 in   Clear
3:35 AM 32.0°F 32.0°F 100% 30.70 in 10.0 miles NE 8.1 mph - 0.00 in   Clear
3:55 AM 32.0°F 32.0°F 100% 30.69 in 10.0 miles NE 6.9 mph - 0.00 in   Clear
4:35 AM 32.0°F 32.0°F 100% 30.69 in 10.0 miles NE 5.8 mph - 0.00 in   Clear
4:55 AM 32.0°F 32.0°F 100% 30.68 in 10.0 miles NE 6.9 mph - 0.00 in   Clear
5:15 AM - - N/A% 30.67 in 10.0 miles NE 5.8 mph - 0.00 in   Clear
5:35 AM 30.2°F 30.2°F 100% 30.67 in 10.0 miles NNE 3.5 mph - 0.00 in   Clear
5:55 AM 30.2°F 30.2°F 100% 30.67 in 10.0 miles Calm Calm - 0.00 in   Clear
6:15 AM 30.2°F 30.2°F 100% 30.66 in 10.0 miles North 3.5 mph - 0.00 in   Clear
6:35 AM 30.2°F 30.2°F 100% 30.66 in 10.0 miles NE 5.8 mph - 0.00 in   Clear
6:55 AM 30.2°F 30.2°F 100% 30.65 in 10.0 miles NE 6.9 mph - 0.00 in   Clear
7:55 AM 30.2°F 30.2°F 100% 30.66 in 10.0 miles NNE 5.8 mph - 0.00 in   Clear
8:15 AM 30.2°F 30.2°F 100% 30.66 in 10.0 miles NE 8.1 mph - 0.00 in   Clear
8:35 AM - - N/A% 30.67 in 10.0 miles ENE 5.8 mph - 0.00 in   Clear
8:55 AM 32.0°F 32.0°F 100% 30.66 in 10.0 miles NE 5.8 mph - 0.00 in   Clear
9:15 AM 32.0°F 32.0°F 100% 30.66 in 10.0 miles NE 6.9 mph - 0.00 in   Clear
9:35 AM 32.0°F 32.0°F 100% 30.66 in 10.0 miles NE 5.8 mph - 0.00 in   Clear
9:55 AM 32.0°F 32.0°F 100% 30.65 in 10.0 miles NE 6.9 mph - 0.00 in   Clear
10:15 AM 33.8°F 32.0°F 93% 30.65 in 10.0 miles NE 5.8 mph - 0.00 in   Clear
10:55 AM 35.6°F 33.8°F 93% 30.65 in 10.0 miles Calm Calm - 0.00 in   Clear
11:15 AM 35.6°F 33.8°F 93% 30.64 in 10.0 miles Calm Calm - 0.00 in   Clear
11:35 AM 37.4°F 35.6°F 93% 30.64 in 10.0 miles NE 4.6 mph - 0.00 in   Clear
11:55 AM 39.2°F 35.6°F 87% 30.64 in 10.0 miles NNW 5.8 mph - 0.00 in   Clear
12:15 PM 39.2°F 35.6°F 87% 30.63 in 10.0 miles NNW 8.1 mph - 0.00 in   Clear
12:35 PM 39.2°F 35.6°F 87% 30.62 in 10.0 miles NW 6.9 mph - 0.00 in   Clear
12:55 PM 41.0°F 35.6°F 81% 30.61 in 10.0 miles NW 11.5 mph - 0.00 in   Clear
1:15 PM 41.0°F 35.6°F 81% 30.61 in 10.0 miles NW 10.4 mph - 0.00 in   Clear
1:35 PM 41.0°F 35.6°F 81% 30.60 in 10.0 miles NW 8.1 mph - 0.00 in   Clear
1:55 PM 42.8°F 35.6°F 76% 30.60 in 10.0 miles NW 8.1 mph - 0.00 in   Clear
2:15 PM 41.0°F 35.6°F 81% 30.60 in 10.0 miles NNW 9.2 mph - 0.00 in   Clear
2:35 PM 41.0°F 35.6°F 81% 30.59 in 10.0 miles NW 8.1 mph - 0.00 in   Clear
2:55 PM 41.0°F 35.6°F 81% 30.59 in 10.0 miles NNW 6.9 mph - 0.00 in   Clear
3:15 PM 41.0°F 35.6°F 81% 30.60 in 10.0 miles NW 8.1 mph - 0.00 in   Clear
3:35 PM 39.2°F 35.6°F 87% 30.59 in 10.0 miles NW 8.1 mph - 0.00 in   Clear
3:55 PM 37.4°F 35.6°F 93% 30.58 in 10.0 miles NW 6.9 mph - 0.00 in   Clear
4:15 PM 37.4°F 33.8°F 87% 30.58 in 10.0 miles NW 6.9 mph - 0.00 in   Clear
4:35 PM 35.6°F 33.8°F 93% 30.58 in 9.0 miles NW 8.1 mph - 0.00 in   Clear
4:55 PM 35.6°F 33.8°F 93% 30.58 in 10.0 miles NW 8.1 mph - 0.00 in   Clear
5:15 PM 35.6°F 33.8°F 93% 30.58 in 10.0 miles NNW 8.1 mph - 0.00 in   Clear
5:35 PM 37.4°F 33.8°F 87% 30.58 in 10.0 miles NW 9.2 mph - 0.00 in   Clear
5:55 PM 35.6°F 33.8°F 93% 30.58 in 10.0 miles NNW 8.1 mph - 0.00 in   Clear
6:15 PM 35.6°F 33.8°F 93% 30.58 in 10.0 miles NNW 6.9 mph - 0.00 in   Clear
6:55 PM 35.6°F 33.8°F 93% 30.58 in 10.0 miles NNW 6.9 mph - 0.00 in   Clear
7:15 PM 35.6°F 33.8°F 93% 30.57 in 10.0 miles NNW 6.9 mph - 0.00 in   Clear
7:35 PM 33.8°F 33.8°F 100% 30.57 in 10.0 miles NW 6.9 mph - 0.00 in   Clear
7:55 PM 35.6°F 33.8°F 93% 30.56 in 10.0 miles North 6.9 mph - 0.00 in   Clear
8:15 PM 33.8°F 33.8°F 100% 30.56 in 10.0 miles NNW 3.5 mph - 0.00 in   Clear
8:35 PM 32.0°F 32.0°F 100% 30.56 in 9.0 miles Calm Calm - 0.00 in   Clear
8:55 PM 32.0°F 32.0°F 100% 30.56 in 8.0 miles NNW 3.5 mph - 0.00 in   Clear
9:15 PM 32.0°F 32.0°F 100% 30.55 in 10.0 miles Calm Calm - 0.00 in   Clear
9:35 PM 32.0°F 32.0°F 100% 30.55 in 8.0 miles North 3.5 mph - 0.00 in   Clear
9:55 PM 32.0°F 32.0°F 100% 30.56 in 10.0 miles North 3.5 mph - 0.00 in   Clear
10:15 PM 32.0°F 32.0°F 100% 30.55 in 10.0 miles Calm Calm - 0.00 in   Clear
10:35 PM 32.0°F 32.0°F 100% 30.55 in 10.0 miles East 3.5 mph - 0.00 in   Clear
10:55 PM 32.0°F 32.0°F 100% 30.54 in 10.0 miles Calm Calm - 0.00 in   Clear
11:15 PM 32.0°F 32.0°F 100% 30.55 in 10.0 miles Calm Calm - 0.00 in   Clear
11:35 PM 32.0°F 32.0°F 100% 30.55 in 8.0 miles Calm Calm - 0.00 in   Clear
11:55 PM 30.2°F 30.2°F 100% 30.54 in 8.0 miles Calm Calm - 0.00 in   Clear
Moon Phase
Jan. 16 Jan. 18 Jan. 26 Feb. 03 Feb. 10
Sunrise:07:55 AM (PST) Moon Rise:10:03 AM (PST)1/16
Sunset:04:44 PM (PST) Moon Set:11:15 PM (PST)1/16

Copyright © 2014 The Weather Underground, Inc.